Theta_e
332 338 346 348 348 348 347 345 344 346 345 342 341 343 345 345 345 344 344 343 343 341 343 343 344 342 343 343 342 342 341 341 341 341 340 340 339 339 337 334 334 327 334
337 342 346 348 349 348 347 344 345 345 344 341 340 341 341 341 342 341 341 342 340 342 342 344 344 343 343 342 341 340 339 338 337 338 337 338 338 336 336 334 335 331 336
338 342 345 348 348 347 346 346 345 344 342 342 342 341 340 341 339 338 338 340 341 340 343 343 342 341 340 340 340 338 337 336 335 334 333 327 330 335 332 331 334 334 333
340 342 342 345 348 347 347 346 345 344 343 344 345 342 340 339 338 337 337 338 341 343 341 341 341 339 338 338 337 337 336 334 333 330 323 324 326 331 330 330 330 329 328
338 340 341 345 348 347 347 345 344 344 344 343 346 343 340 338 338 336 338 338 339 340 339 338 338 338 335 336 336 335 334 332 331 327 323 321 321 328 329 329 327 328 328
336 339 342 345 348 347 346 344 344 343 343 342 342 340 338 337 338 339 336 338 339 338 338 337 336 335 334 334 335 334 332 330 326 321 322 325 326 329 329 328 326 326 326
334 337 340 344 345 346 346 344 344 343 342 340 340 340 337 336 337 338 340 338 337 337 336 335 334 333 332 332 333 332 330 328 320 320 320 320 320 328 327 327 326 325 325
334 336 338 337 341 343 344 343 342 343 342 339 338 338 338 337 338 338 338 338 336 335 335 334 333 332 331 331 331 330 328 326 321 319 319 320 328 327 325 326 325 324 324
334 333 334 337 337 336 338 338 339 341 340 340 338 338 338 339 340 339 339 339 336 335 334 334 332 331 330 330 329 327 327 325 319 319 321 319 328 325 325 323 323 323 322
329 330 330 333 335 335 333 332 333 336 337 337 335 332 331 333 335 335 333 337 337 336 334 333 332 330 330 329 328 326 325 324 318 318 318 319 326 324 324 323 321 322 321
328 326 327 330 331 332 331 327 328 330 331 330 328 325 323 323 325 328 330 334 335 335 333 332 330 328 326 324 325 324 321 316 316 316 316 323 325 324 324 323 322 322 322
323 324 326 326 328 330 332 327 327 326 325 324 323 322 322 321 321 323 324 327 329 330 331 330 329 325 321 318 318 319 316 316 315 315 316 323 326 326 326 325 325 324 324
323 324 324 325 326 328 328 326 324 323 322 322 321 321 321 320 319 318 317 317 317 318 318 318 317 317 317 316 315 315 316 315 314 315 317 322 326 328 329 329 329 328 327
322 322 324 325 325 325 327 326 324 323 321 320 321 321 319 318 317 316 316 315 316 317 316 316 315 316 315 315 315 314 315 315 316 316 316 318 322 327 330 331 332 331 331
322 323 324 324 325 325 325 324 324 323 323 322 321 321 319 318 317 317 316 316 316 316 316 315 314 314 314 314 315 314 314 315 316 316 316 316 320 325 329 331 332 333 333
325 324 325 325 326 325 324 323 324 324 325 324 322 321 320 317 317 318 317 317 317 316 316 315 314 313 313 313 313 314 314 314 315 315 316 316 320 323 327 330 331 332 333
326 327 325 325 326 325 324 325 324 324 326 324 323 322 320 320 318 318 317 316 317 316 315 314 313 312 312 312 311 312 312 312 313 313 314 314 315 318 321 325 328 329 330
327 326 327 327 326 326 326 326 327 326 326 324 324 323 322 321 320 317 316 316 316 316 315 313 312 312 311 310 310 311 313 313 313 313 313 313 313 314 317 320 323 324 326
327 327 326 326 326 326 326 329 330 329 327 326 326 326 325 324 321 317 316 315 315 315 314 315 311 311 311 312 313 312 312 311 311 313 311 311 311 312 313 316 318 318 320
326 327 328 327 328 326 326 327 329 329 329 329 327 328 327 326 325 322 320 317 316 315 317 316 312 315 315 312 313 314 312 312 310 308 309 310 310 310 310 310 310 312 316
323 325 327 327 327 327 323 326 327 327 328 328 329 328 328 328 328 326 324 323 321 319 319 317 316 314 313 312 309 313 310 312 308 308 309 309 309 310 309 309 309 310 311
320 325 326 327 327 328 327 324 325 327 328 329 329 329 329 329 328 327 326 325 323 321 320 318 316 315 313 313 313 309 305 307 307 310 309 309 307 308 308 308 308 308 308
316 322 325 327 327 328 327 323 324 326 326 326 325 326 328 328 328 326 326 325 324 323 321 320 318 316 314 315 314 311 306 304 306 307 307 305 305 304 304 305 305 306 306
314 317 324 326 327 327 326 325 320 320 321 324 325 326 327 327 327 327 326 325 324 322 321 320 319 318 315 312 311 309 311 310 304 299 303 305 303 304 304 304 304 304 304
301 304 314 321 324 326 326 326 323 321 322 324 324 324 325 324 324 324 324 322 320 318 317 317 315 313 313 311 310 309 305 305 301 302 296 297 301 300 301 301 302 303 304
300 299 299 312 323 325 325 325 325 324 321 321 321 321 320 314 311 310 310 309 308 307 305 303 303 302 302 306 303 304 302 301 299 298 296 295 294 294 297 299 299 301 301
Wind_Speed
2 4 7 10 13 14 14 13 12 13 15 15 14 15 15 15 17 17 17 17 16 17 18 19 19 20 20 20 20 20 21 20 20 19 19 19 19 19 18 18 15 9 14
7 5 7 9 12 14 15 13 11 13 13 14 16 16 15 14 14 17 17 14 17 18 17 19 19 18 17 17 18 19 19 18 18 16 15 16 16 16 15 14 14 10 13
7 5 6 10 12 14 13 12 12 12 13 13 16 17 16 17 16 17 16 15 16 16 17 17 19 20 17 17 18 17 17 15 15 14 13 6 9 15 14 14 13 14 15
8 6 6 11 12 13 12 13 12 12 12 13 16 17 16 16 15 16 16 15 13 16 17 17 18 18 18 16 17 16 15 15 15 14 7 7 7 12 13 13 13 13 12
7 6 7 10 10 13 13 13 11 12 12 14 15 18 16 15 14 15 15 12 14 14 15 16 17 18 18 16 14 14 14 15 14 9 6 6 5 8 12 11 11 11 11
7 6 8 9 12 14 14 14 12 12 13 14 16 16 15 14 13 15 14 13 13 14 14 15 14 16 16 16 12 13 12 11 10 6 6 6 4 11 10 10 9 9 9
7 6 6 9 14 14 14 13 12 12 13 13 14 15 14 13 12 12 11 15 13 13 13 12 13 14 15 15 14 11 10 10 5 5 5 5 5 9 9 8 8 8 8
10 6 6 8 10 12 13 12 12 12 13 14 13 13 11 14 12 11 9 15 12 11 11 10 11 12 13 13 14 10 9 7 5 4 4 4 5 7 7 7 7 6 6
8 8 5 6 8 10 11 11 10 11 11 12 12 12 9 10 11 9 10 12 11 10 10 9 9 9 11 12 11 8 5 6 4 3 3 3 5 5 5 4 4 5 5
5 5 6 5 6 5 6 10 9 11 11 11 10 10 9 10 10 9 8 9 9 9 8 7 7 8 10 10 10 9 5 6 3 3 2 2 4 4 3 4 4 4 4
4 4 4 4 5 5 6 6 8 9 9 8 8 9 6 4 5 6 6 7 7 6 5 5 6 7 8 8 8 8 6 1 2 1 2 6 4 3 4 4 5 5 6
6 5 5 5 6 6 5 5 5 5 4 4 5 5 3 4 3 4 4 6 5 4 3 4 4 5 6 4 3 5 2 2 2 3 3 7 7 6 6 6 7 8 8
8 5 5 6 5 6 6 4 3 3 3 3 5 4 4 3 2 2 1 2 2 3 2 3 2 2 3 2 3 3 3 2 2 2 4 8 10 11 10 10 10 10 11
10 8 7 7 6 4 4 4 4 4 3 3 4 4 3 2 2 1 1 0 0 0 1 1 2 3 3 3 3 4 4 3 2 2 4 7 10 12 14 15 15 15 14
11 10 9 7 6 5 5 3 3 4 4 4 4 4 4 4 3 2 2 2 1 1 1 1 2 2 3 4 4 4 6 6 5 3 3 7 9 12 15 17 18 19 20
9 11 11 10 8 7 5 5 4 4 4 4 4 5 5 4 4 4 3 2 2 2 2 2 2 2 3 3 5 5 6 5 5 5 4 5 10 13 16 18 20 21 22
8 9 11 11 10 9 7 6 4 4 4 4 4 5 6 5 5 4 3 3 3 2 2 1 2 2 4 4 5 5 5 6 5 6 5 5 5 10 14 18 20 22 23
11 10 10 9 10 10 9 7 5 5 4 4 4 4 6 6 5 4 3 3 2 1 1 1 1 3 3 3 4 5 5 5 7 7 5 5 4 6 8 14 17 19 21
12 11 9 8 11 10 7 8 5 5 4 4 4 4 6 5 5 4 3 2 2 2 2 1 1 1 3 3 4 5 5 5 6 5 6 6 6 5 5 10 13 14 18
12 12 12 10 10 7 4 4 5 3 3 3 3 3 5 4 5 4 3 4 3 2 2 1 2 2 3 4 5 6 5 5 4 3 5 5 5 6 5 6 5 7 14
11 13 14 13 10 7 3 4 3 4 3 2 3 5 4 3 3 3 2 3 3 3 2 1 1 2 2 2 3 5 4 6 4 3 4 4 5 5 6 5 4 4 6
12 14 13 14 12 10 8 4 4 4 2 2 3 4 4 5 5 4 4 3 3 2 2 2 2 2 2 1 2 1 5 5 3 5 4 4 6 4 5 6 7 8 6
12 14 14 14 13 12 9 4 3 3 2 3 2 2 4 5 5 5 5 3 3 2 2 2 1 2 2 1 1 2 3 3 9 4 7 2 6 4 5 6 7 7 7
9 7 10 12 13 12 11 9 6 5 4 3 4 4 4 5 5 4 4 3 2 1 2 2 2 2 0 2 2 1 2 3 4 7 3 9 5 9 8 7 8 8 8
7 8 8 9 10 11 13 12 9 6 4 4 3 4 4 3 4 5 5 6 5 4 4 5 4 5 3 2 3 3 1 3 1 4 11 6 8 4 5 5 6 7 8
4 5 6 8 12 12 13 11 13 11 7 4 5 4 4 4 4 6 7 6 5 4 4 4 5 7 5 5 3 4 3 3 4 4 7 13 14 6 5 7 6 6 6
Wind_Direction
174 160 120 117 116 108 106 103 100 87 89 82 83 84 84 82 78 75 74 76 79 78 82 83 85 80 81 80 77 74 73 70 66 63 65 65 61 61 61 57 51 42 58
132 143 135 113 113 112 107 105 96 91 92 93 88 90 87 84 83 79 78 84 82 88 88 86 89 87 82 88 87 81 75 71 65 59 57 57 63 62 61 58 63 75 66
121 132 128 113 113 115 118 110 105 103 104 100 104 94 89 85 85 88 87 89 90 94 88 88 81 69 70 75 76 79 80 74 69 61 51 43 51 56 61 61 56 62 55
122 104 104 111 123 124 120 112 109 105 102 91 108 100 94 92 93 90 93 93 90 91 95 84 76 71 64 74 81 81 80 76 67 57 41 35 46 53 58 55 52 51 51
102 103 117 114 126 128 122 115 114 112 106 88 107 98 93 95 97 95 99 95 93 90 92 81 70 66 66 68 73 83 77 72 66 59 52 51 29 65 67 67 52 48 50
106 112 123 117 132 129 125 120 119 114 106 104 92 98 93 97 98 95 97 85 80 88 86 85 76 73 68 60 70 85 79 72 69 63 59 50 68 65 59 56 58 58 49
120 122 120 120 130 129 125 124 125 120 110 109 100 96 98 101 102 97 90 101 87 84 85 82 80 76 70 64 69 80 82 72 65 56 44 37 35 56 54 54 47 44 47
129 119 116 120 127 128 124 123 122 116 115 108 105 105 99 111 111 99 82 108 102 93 91 85 76 72 73 67 58 69 73 68 65 63 43 20 40 53 49 48 39 33 29
120 117 110 115 122 122 122 116 116 111 105 108 104 100 81 81 100 90 74 100 101 96 91 81 67 60 59 66 59 48 77 73 58 34 43 13 7 40 38 37 27 19 11
90 117 128 123 119 107 110 113 112 107 98 100 101 98 85 77 86 82 72 86 102 98 88 78 65 50 41 40 46 44 74 64 51 20 357 315 9 10 12 360 348 348 341
106 113 111 109 104 111 113 113 104 105 114 110 104 103 88 90 88 88 95 92 95 90 91 85 72 55 31 24 27 38 50 25 8 320 306 297 315 330 328 320 316 308 300
172 170 155 148 144 138 129 128 125 129 132 128 125 120 108 100 94 87 93 94 86 87 74 68 65 41 25 13 359 15 23 354 347 292 283 294 293 297 298 292 290 291 291
174 166 175 163 165 146 144 147 136 127 128 134 140 132 125 98 110 88 71 48 46 59 42 42 24 15 9 6 352 338 333 333 295 299 295 288 283 292 298 295 289 285 286
171 179 176 171 169 170 149 157 151 143 146 156 172 154 147 143 153 176 177 204 117 6 341 357 333 329 337 331 325 321 316 306 296 297 294 297 289 285 292 297 295 296 281
173 180 180 167 168 166 163 159 153 164 169 174 176 178 157 167 184 181 210 208 222 250 271 288 301 317 324 329 321 313 309 308 311 306 298 293 291 289 287 289 291 292 292
183 181 176 177 172 162 172 178 182 175 183 177 177 182 183 178 182 197 216 233 240 229 244 255 275 303 302 308 307 309 298 302 304 301 283 286 284 284 288 292 292 291 291
192 183 177 179 173 173 177 185 179 191 186 190 190 187 188 185 193 187 197 212 230 234 260 298 311 319 313 317 297 309 304 298 287 276 274 267 280 278 280 289 292 293 294
183 189 184 177 177 179 177 179 183 184 185 197 193 185 188 194 191 186 198 223 232 235 247 270 299 306 291 313 305 300 287 284 283 279 280 281 280 288 291 292 296 302 302
188 189 191 181 180 184 177 171 167 174 176 192 177 195 195 187 178 181 201 230 220 234 244 280 327 258 299 293 281 279 285 277 278 290 295 301 292 288 294 297 301 303 303
189 186 192 191 191 185 170 155 143 159 189 167 195 203 188 189 179 183 196 211 207 228 262 225 248 249 274 290 299 300 281 273 267 297 298 287 289 292 299 297 305 302 302
191 187 188 186 187 167 153 175 156 185 177 192 190 195 171 176 192 193 226 247 217 238 247 276 307 315 300 322 326 304 293 289 332 316 279 293 311 326 319 314 309 302 303
189 196 190 192 185 186 182 174 161 152 172 167 183 192 198 201 214 222 225 233 234 240 253 236 211 313 268 275 311 316 328 334 352 311 318 323 322 313 312 315 306 302 300
191 193 192 189 186 187 179 137 91 84 80 151 165 189 210 213 214 215 232 227 249 229 267 270 240 223 303 1 17 325 334 283 333 329 313 317 315 324 299 292 293 290 289
197 176 191 186 184 185 172 176 170 163 164 182 173 192 201 204 228 225 233 205 188 84 354 348 9 25 27 345 15 84 238 307 325 321 323 315 331 324 311 313 306 300 297
166 173 177 170 178 180 183 183 181 172 181 166 149 178 174 89 57 56 69 71 72 60 52 51 59 62 50 31 14 355 342 270 286 310 305 307 302 284 277 278 285 291 289
158 167 178 180 184 181 182 185 189 187 163 150 150 143 99 80 66 59 65 69 67 74 62 55 59 62 51 53 23 16 12 349 327 328 309 313 305 306 298 279 277 276 291